Hourly Data Report for October 09, 2015

All times are specified in Local Standard Time (LST). Add 1 hour to adjust for Daylight Saving Time where and when it is observed.

BATHURST A
NEW BRUNSWICK

47°37'47.000" N
65°44'20.000" W
58.80 m
8100505
71574
ZBF

Download Data

Hourly Data (October 2015)
Hourly Data Report for October 9, 2015
Temp Definition
°C
Dew Point Temp Definition
°C
Rel Hum Definition
%
Wind Dir Definition
10's deg

Wind Spd Definition
km/h
Visibility Definition
km
Stn Press Definition
kPa
Hmdx Definition


Wind Chill Definition


Weather Definition


TIME
00:00 Legend Double Dagger 5.0 -0.6 67 36 2 24.1 101.15     LegendNANA
01:00 Legend Double Dagger 3.9 0.6 79 15 3 24.1 101.15     LegendNANA
02:00 Legend Double Dagger 4.6 0.0 72 28 4 24.1 101.16     Cloudy
03:00 Legend Double Dagger 2.2 0.6 89 4 3 24.1 101.14     LegendNANA
04:00 Legend Double Dagger 0.2 -0.7 94 36 2 24.1 101.12     LegendNANA
05:00 Legend Double Dagger -0.7 -1.3 96 36 1 24.1 101.12   -1 Clear
06:00 Legend Double Dagger -1.5 -1.9 97 36 2 24.1 101.12   -2 LegendNANA
07:00 Legend Double Dagger -1.4 -2.0 96 26 3 24.1 101.12   -2 LegendNANA
08:00 Legend Double Dagger 2.1 0.2 87 36 2 24.1 101.16     Mostly Cloudy
09:00 Legend Double Dagger 5.7 0.9 71 11 6 24.1 101.14     LegendNANA
10:00 Legend Double Dagger 6.4 0.5 66 10 5 24.1 101.09     LegendNANA
11:00 Legend Double Dagger 7.1 1.4 67 9 6 24.1 100.99     Cloudy
12:00 Legend Double Dagger 8.2 1.2 61 17 6 24.1 100.93     LegendNANA
13:00 Legend Double Dagger 8.5 0.3 56 17 9 24.1 100.80     LegendNANA
14:00 Legend Double Dagger 8.6 0.6 57 16 10 24.1 100.69     Cloudy
15:00 Legend Double Dagger 8.6 -0.4 53 15 14 24.1 100.57     LegendNANA
16:00 Legend Double Dagger 8.2 -1.6 50 20 9 24.1 100.47     LegendNANA
17:00 Legend Double Dagger 6.3 1.3 70 20 12 16.1 100.39     Rain
18:00 Legend Double Dagger 4.8 3.2 89 17 5 16.1 100.32     Rain
19:00 Legend Double Dagger 4.8 3.9 94 10 4 19.3 100.22     LegendNANA
20:00 Legend Double Dagger 4.7 4.0 95 8 6 19.3 100.04     Rain
21:00 Legend Double Dagger 4.9 4.0 94 4 6 19.3 99.92     Rain
22:00 Legend Double Dagger 4.9 4.5 97 3 5 12.9 99.72     Rain
23:00 Legend Double Dagger 5.0 4.7 98 36 2 12.9 99.56     Moderate Rain

Notes on Data Quality.

Legend

  • E = Estimated
  • M = Missing
  • NA = Not Available
  • ‡ = Partner data that is not subject to review by the National Climate Archives
Date modified: